Location: Bluff Heights
(33.7692°N, 118.1592°W)
Time: 00:26:33
(UTC+00:00)

Tiros 1 - Pass Details

Date: 27 July 2021
Orbit: 630 x 663 km, 48.4° (Epoch: 20 September)

Event Time Altitude Azimuth Distance (km) Brightness Sun altitude
Rises 11:32:38 0° 292° (WNW) 2,923 - -16.7°
Reaches altitude 10° 11:35:32 10° 274° (W) 2,008 - -16.2°
Maximum altitude 11:38:44 19° 230° (SW) 1,511 - -15.7°
Drops below altitude 10° 11:41:55 10° 186° (S) 1,995 - -15.1°
Exits shadow 11:43:20 - 175° (S) 2,412 9.8 -14.9°
Sets 11:44:48 0° 168° (SSE) 2,898 10.3 -14.6°
